Location: Caltech
(34.1382°N, 118.1253°W)
Time: 09:05:57
(UTC-07:00)

Tiros 1 despin weight - Visible Passes

Search period start: 24 October 2014 00:00
Search period end: 02 November 2014 23:00
Orbit: 601 x 652 km, 48.2° (Epoch: 23 October)

Date Brightness Start Highest point End Pass type
(mag) Time Alt. Az. Time Alt. Az. Time Alt. Az.
24 Oct ? 06:13:27 10° SSE 06:14:55 11° SE 06:16:24 10° ESE visible
25 Oct ? 06:29:53 10° S 06:33:47 26° SE 06:37:40 10° ENE visible
27 Oct ? 05:27:16 10° S 05:30:33 19° SE 05:33:48 10° E visible
28 Oct ? 05:45:02 10° SSW 05:49:27 41° SE 05:53:51 10° ENE visible
29 Oct ? 04:26:38 13° SE 04:27:17 13° SE 04:29:29 10° E visible
29 Oct ? 06:03:56 11° SW 06:08:31 88° SE 06:13:12 10° NE visible
30 Oct ? 04:46:01 29° SE 04:46:07 29° SE 04:50:12 10° ENE visible
30 Oct ? 06:23:19 11° WSW 06:27:44 47° NNW 06:32:15 10° NE visible
31 Oct ? 05:05:11 65° SE 05:05:11 65° SE 05:09:45 10° ENE visible
31 Oct ? 06:43:04 10° W 06:47:07 28° NNW 06:51:09 10° NE visible
01 Nov ? 05:24:08 62° NW 05:24:13 63° NW 05:28:52 10° NE visible
02 Nov ? 03:05:40 13° ENE 03:05:40 13° ENE 03:06:10 10° ENE visible
02 Nov ? 04:42:55 33° NW 04:43:30 34° NNW 04:47:48 10° NE visible
